Year,Month,Day,Hour,Minute,Value (Times are PST for temperature in C)
2010,08,20,00,00,9.30
2010,08,20,00,01,9.30
2010,08,20,00,02,9.30
2010,08,20,00,03,9.20
2010,08,20,00,04,9.20
2010,08,20,00,05,9.20
2010,08,20,00,06,9.20
2010,08,20,00,07,9.20
2010,08,20,00,08,9.10
2010,08,20,00,09,9.10
2010,08,20,00,10,9.00
2010,08,20,00,11,9.00
2010,08,20,00,12,9.00
2010,08,20,00,13,9.00
2010,08,20,00,14,9.00
2010,08,20,00,15,9.00
2010,08,20,00,16,8.90
2010,08,20,00,17,8.90
2010,08,20,00,18,8.90
2010,08,20,00,19,8.90
2010,08,20,00,20,8.80
2010,08,20,00,21,8.80
2010,08,20,00,22,8.80
2010,08,20,00,23,8.80
2010,08,20,00,24,8.80
2010,08,20,00,25,8.70
2010,08,20,00,26,8.70
2010,08,20,00,27,8.70
2010,08,20,00,28,8.70
2010,08,20,00,29,8.70
2010,08,20,00,30,8.70
2010,08,20,00,31,8.70
2010,08,20,00,32,8.70
2010,08,20,00,33,8.70
2010,08,20,00,34,8.70
2010,08,20,00,35,8.70
2010,08,20,00,36,8.70
2010,08,20,00,37,8.70
2010,08,20,00,38,8.60
2010,08,20,00,39,8.60
2010,08,20,00,40,8.60
2010,08,20,00,41,8.60
2010,08,20,00,42,8.60
2010,08,20,00,43,8.60
2010,08,20,00,44,8.60
2010,08,20,00,45,8.60
2010,08,20,00,46,8.60
2010,08,20,00,47,8.60
2010,08,20,00,48,8.50
2010,08,20,00,49,8.50
2010,08,20,00,50,8.50
2010,08,20,00,51,8.50
2010,08,20,00,52,8.50
2010,08,20,00,53,8.50
2010,08,20,00,54,8.50
2010,08,20,00,55,8.50
2010,08,20,00,56,8.50
2010,08,20,00,57,8.40
2010,08,20,00,58,8.40
2010,08,20,00,59,8.40
2010,08,20,01,00,8.40
2010,08,20,01,01,8.40
2010,08,20,01,02,8.40
2010,08,20,01,03,8.30
2010,08,20,01,04,8.30
2010,08,20,01,05,8.30
2010,08,20,01,06,8.30
2010,08,20,01,07,8.30
2010,08,20,01,08,8.30
2010,08,20,01,09,8.30
2010,08,20,01,10,8.20
2010,08,20,01,11,8.20
2010,08,20,01,12,8.20
2010,08,20,01,13,8.20
2010,08,20,01,14,8.20
2010,08,20,01,15,8.20
2010,08,20,01,16,8.10
2010,08,20,01,17,8.10
2010,08,20,01,18,8.10
2010,08,20,01,19,8.10
2010,08,20,01,20,8.10
2010,08,20,01,21,8.00
2010,08,20,01,22,8.00
2010,08,20,01,23,8.00
2010,08,20,01,24,7.90
2010,08,20,01,25,7.90
2010,08,20,01,26,7.90
2010,08,20,01,27,7.80
2010,08,20,01,28,7.80
2010,08,20,01,29,7.80
2010,08,20,01,30,7.80
2010,08,20,01,31,7.80
2010,08,20,01,32,7.80
2010,08,20,01,33,7.80
2010,08,20,01,34,7.70
2010,08,20,01,35,7.70
2010,08,20,01,36,7.70
2010,08,20,01,37,7.70
2010,08,20,01,38,7.70
2010,08,20,01,39,7.70
2010,08,20,01,40,7.60
2010,08,20,01,41,7.60
2010,08,20,01,42,7.60
2010,08,20,01,43,7.60
2010,08,20,01,44,7.60
2010,08,20,01,45,7.60
2010,08,20,01,46,7.60
2010,08,20,01,47,7.60
2010,08,20,01,48,7.60
2010,08,20,01,49,7.60
2010,08,20,01,50,7.60
2010,08,20,01,51,7.60
2010,08,20,01,52,7.60
2010,08,20,01,53,7.60
2010,08,20,01,54,7.60
2010,08,20,01,55,7.60
2010,08,20,01,56,7.60
2010,08,20,01,57,7.60
2010,08,20,01,58,7.60
2010,08,20,01,59,7.60
2010,08,20,02,00,7.60
2010,08,20,02,01,7.60
2010,08,20,02,02,7.60
2010,08,20,02,03,7.60
2010,08,20,02,04,7.60
2010,08,20,02,05,7.60
2010,08,20,02,06,7.60
2010,08,20,02,07,7.60
2010,08,20,02,08,7.60
2010,08,20,02,09,7.60
2010,08,20,02,10,7.60
2010,08,20,02,11,7.60
2010,08,20,02,12,7.60
2010,08,20,02,13,7.50
2010,08,20,02,14,7.50
2010,08,20,02,15,7.50
2010,08,20,02,16,7.50
2010,08,20,02,17,7.50
2010,08,20,02,18,7.50
2010,08,20,02,19,7.50
2010,08,20,02,20,7.50
2010,08,20,02,21,7.50
2010,08,20,02,22,7.40
2010,08,20,02,23,7.40
2010,08,20,02,24,7.40
2010,08,20,02,25,7.40
2010,08,20,02,26,7.40
2010,08,20,02,27,7.40
2010,08,20,02,28,7.40
2010,08,20,02,29,7.40
2010,08,20,02,30,7.40
2010,08,20,02,31,7.30
2010,08,20,02,32,7.30
2010,08,20,02,33,7.30
2010,08,20,02,34,7.30
2010,08,20,02,35,7.30
2010,08,20,02,36,7.30
2010,08,20,02,37,7.30
2010,08,20,02,38,7.30
2010,08,20,02,39,7.30
2010,08,20,02,40,7.30
2010,08,20,02,41,7.30
2010,08,20,02,42,7.30
2010,08,20,02,43,7.30
2010,08,20,02,44,7.30
2010,08,20,02,45,7.30
2010,08,20,02,46,7.30
2010,08,20,02,47,7.20
2010,08,20,02,48,7.20
2010,08,20,02,49,7.20
2010,08,20,02,50,7.20
2010,08,20,02,51,7.20
2010,08,20,02,52,7.20
2010,08,20,02,53,7.10
2010,08,20,02,54,7.10
2010,08,20,02,55,7.10
2010,08,20,02,56,7.10
2010,08,20,02,57,7.00
2010,08,20,02,58,7.00
2010,08,20,02,59,7.00
2010,08,20,03,00,7.00
2010,08,20,03,01,7.00
2010,08,20,03,02,7.00
2010,08,20,03,03,6.90
2010,08,20,03,04,6.90
2010,08,20,03,05,6.90
2010,08,20,03,06,6.90
2010,08,20,03,07,6.90
2010,08,20,03,08,6.90
2010,08,20,03,09,6.90
2010,08,20,03,10,6.90
2010,08,20,03,11,6.80
2010,08,20,03,12,6.80
2010,08,20,03,13,6.80
2010,08,20,03,14,6.80
2010,08,20,03,15,6.80
2010,08,20,03,16,6.80
2010,08,20,03,17,6.80
2010,08,20,03,18,6.80
2010,08,20,03,19,6.80
2010,08,20,03,20,6.80
2010,08,20,03,21,6.80
2010,08,20,03,22,6.80
2010,08,20,03,23,6.80
2010,08,20,03,24,6.80
2010,08,20,03,25,6.80
2010,08,20,03,26,6.80
2010,08,20,03,27,6.80
2010,08,20,03,28,6.80
2010,08,20,03,29,6.80
2010,08,20,03,30,6.80
2010,08,20,03,31,6.80
2010,08,20,03,32,6.80
2010,08,20,03,33,6.80
2010,08,20,03,34,6.80
2010,08,20,03,35,6.80
2010,08,20,03,36,6.80
2010,08,20,03,37,6.80
2010,08,20,03,38,6.80
2010,08,20,03,39,6.80
2010,08,20,03,40,6.80
2010,08,20,03,41,6.80
2010,08,20,03,42,6.80
2010,08,20,03,43,6.80
2010,08,20,03,44,6.80
2010,08,20,03,45,6.80
2010,08,20,03,46,6.80
2010,08,20,03,47,6.80
2010,08,20,03,48,6.80
2010,08,20,03,49,6.80
2010,08,20,03,50,6.80
2010,08,20,03,51,6.80
2010,08,20,03,52,6.80
2010,08,20,03,53,6.80
2010,08,20,03,54,6.80
2010,08,20,03,55,6.80
2010,08,20,03,56,6.80
2010,08,20,03,57,6.80
2010,08,20,03,58,6.80
2010,08,20,03,59,6.80
2010,08,20,04,00,6.80
2010,08,20,04,01,6.90
2010,08,20,04,02,6.90
2010,08,20,04,03,6.90
2010,08,20,04,04,6.90
2010,08,20,04,05,7.00
2010,08,20,04,06,7.00
2010,08,20,04,07,7.00
2010,08,20,04,08,7.10
2010,08,20,04,09,7.10
2010,08,20,04,10,7.10
2010,08,20,04,11,7.20
2010,08,20,04,12,7.20
2010,08,20,04,13,7.30
2010,08,20,04,14,7.30
2010,08,20,04,15,7.30
2010,08,20,04,16,7.30
2010,08,20,04,17,7.40
2010,08,20,04,18,7.40
2010,08,20,04,19,7.50
2010,08,20,04,20,7.50
2010,08,20,04,21,7.50
2010,08,20,04,22,7.60
2010,08,20,04,23,7.60
2010,08,20,04,24,7.60
2010,08,20,04,25,7.70
2010,08,20,04,26,7.70
2010,08,20,04,27,7.70
2010,08,20,04,28,7.80
2010,08,20,04,29,7.80
2010,08,20,04,30,7.80
2010,08,20,04,31,7.80
2010,08,20,04,32,7.80
2010,08,20,04,33,7.80
2010,08,20,04,34,7.80
2010,08,20,04,35,7.80
2010,08,20,04,36,7.80
2010,08,20,04,37,7.80
2010,08,20,04,38,7.90
2010,08,20,04,39,7.90
2010,08,20,04,40,7.90
2010,08,20,04,41,7.90
2010,08,20,04,42,7.90
2010,08,20,04,43,7.90
2010,08,20,04,44,7.90
2010,08,20,04,45,7.90
2010,08,20,04,46,7.90
2010,08,20,04,47,7.90
2010,08,20,04,48,7.90
2010,08,20,04,49,7.90
2010,08,20,04,50,8.00
2010,08,20,04,51,8.00
2010,08,20,04,52,8.00
2010,08,20,04,53,8.00
2010,08,20,04,54,8.00
2010,08,20,04,55,8.00
2010,08,20,04,56,8.00
2010,08,20,04,57,8.00
2010,08,20,04,58,8.00
2010,08,20,04,59,8.00
2010,08,20,05,00,8.00
2010,08,20,05,01,8.00
2010,08,20,05,02,8.00
2010,08,20,05,03,8.00
2010,08,20,05,04,8.00
2010,08,20,05,05,8.00
2010,08,20,05,06,8.00
2010,08,20,05,07,8.00
2010,08,20,05,08,8.00
2010,08,20,05,09,8.00
2010,08,20,05,10,8.00
2010,08,20,05,11,8.00
2010,08,20,05,12,8.00
2010,08,20,05,13,8.00
2010,08,20,05,14,8.00
2010,08,20,05,15,8.00
2010,08,20,05,16,8.00
2010,08,20,05,17,8.00
2010,08,20,05,18,8.00
2010,08,20,05,19,8.00
2010,08,20,05,20,8.00
2010,08,20,05,21,8.00
2010,08,20,05,22,8.00
2010,08,20,05,23,8.00
2010,08,20,05,24,8.00
2010,08,20,05,25,8.00
2010,08,20,05,26,8.00
2010,08,20,05,27,8.00
2010,08,20,05,28,8.00
2010,08,20,05,29,8.00
2010,08,20,05,30,8.10
2010,08,20,05,31,8.10
2010,08,20,05,32,8.10
2010,08,20,05,33,8.10
2010,08,20,05,34,8.10
2010,08,20,05,35,8.20
2010,08,20,05,36,8.20
2010,08,20,05,37,8.20
2010,08,20,05,38,8.20
2010,08,20,05,39,8.20
2010,08,20,05,40,8.20
2010,08,20,05,41,8.20
2010,08,20,05,42,8.20
2010,08,20,05,43,8.20
2010,08,20,05,44,8.20
2010,08,20,05,45,8.20
2010,08,20,05,46,8.20
2010,08,20,05,47,8.10
2010,08,20,05,48,8.10
2010,08,20,05,49,8.10
2010,08,20,05,50,8.10
2010,08,20,05,51,8.10
2010,08,20,05,52,8.10
2010,08,20,05,53,8.10
2010,08,20,05,54,8.10
2010,08,20,05,55,8.00
2010,08,20,05,56,8.00
2010,08,20,05,57,8.00
2010,08,20,05,58,8.00
2010,08,20,05,59,8.00
2010,08,20,06,00,8.00
2010,08,20,06,01,7.90
2010,08,20,06,02,7.90
2010,08,20,06,03,7.90
2010,08,20,06,04,7.90
2010,08,20,06,05,7.90
2010,08,20,06,06,7.90
2010,08,20,06,07,7.80
2010,08,20,06,08,7.80
2010,08,20,06,09,7.80
2010,08,20,06,10,7.80
2010,08,20,06,11,7.80
2010,08,20,06,12,7.80
2010,08,20,06,13,7.80
2010,08,20,06,14,7.80
2010,08,20,06,15,7.80
2010,08,20,06,16,7.80
2010,08,20,06,17,7.80
2010,08,20,06,18,7.80
2010,08,20,06,19,7.80
2010,08,20,06,20,7.70
2010,08,20,06,21,7.70
2010,08,20,06,22,7.70
2010,08,20,06,23,7.70
2010,08,20,06,24,7.70
2010,08,20,06,25,7.70
2010,08,20,06,26,7.70
2010,08,20,06,27,7.70
2010,08,20,06,28,7.70
2010,08,20,06,29,7.70
2010,08,20,06,30,7.70
2010,08,20,06,31,7.70
2010,08,20,06,32,7.70
2010,08,20,06,33,7.70
2010,08,20,06,34,7.70
2010,08,20,06,35,7.70
2010,08,20,06,36,7.70
2010,08,20,06,37,7.70
2010,08,20,06,38,7.70
2010,08,20,06,39,7.70
2010,08,20,06,40,7.70
2010,08,20,06,41,7.70
2010,08,20,06,42,7.70
2010,08,20,06,43,7.70
2010,08,20,06,44,7.70
2010,08,20,06,45,7.70
2010,08,20,06,46,7.70
2010,08,20,06,47,7.70
2010,08,20,06,48,7.70
2010,08,20,06,49,7.70
2010,08,20,06,50,7.70
2010,08,20,06,51,7.70
2010,08,20,06,52,7.70
2010,08,20,06,53,7.70
2010,08,20,06,54,7.70
2010,08,20,06,55,7.70
2010,08,20,06,56,7.70
2010,08,20,06,57,7.70
2010,08,20,06,58,7.70
2010,08,20,06,59,7.70
2010,08,20,07,00,7.70
2010,08,20,07,01,7.70
2010,08,20,07,02,7.70
2010,08,20,07,03,7.70
2010,08,20,07,04,7.70
2010,08,20,07,05,7.70
2010,08,20,07,06,7.80
2010,08,20,07,07,7.80
2010,08,20,07,08,7.80
2010,08,20,07,09,7.80
2010,08,20,07,10,7.80
2010,08,20,07,11,7.80
2010,08,20,07,12,7.80
2010,08,20,07,13,7.80
2010,08,20,07,14,7.80
2010,08,20,07,15,7.80
2010,08,20,07,16,7.90
2010,08,20,07,17,7.90
2010,08,20,07,18,7.90
2010,08,20,07,19,8.00
2010,08,20,07,20,8.00
2010,08,20,07,21,8.00
2010,08,20,07,22,8.10
2010,08,20,07,23,8.10
2010,08,20,07,24,8.10
2010,08,20,07,25,8.20
2010,08,20,07,26,8.20
2010,08,20,07,27,8.20
2010,08,20,07,28,8.20
2010,08,20,07,29,8.30
2010,08,20,07,30,8.30
2010,08,20,07,31,8.30
2010,08,20,07,32,8.40
2010,08,20,07,33,8.40
2010,08,20,07,34,8.50
2010,08,20,07,35,8.50
2010,08,20,07,36,8.50
2010,08,20,07,37,8.60
2010,08,20,07,38,8.60
2010,08,20,07,39,8.60
2010,08,20,07,40,8.60
2010,08,20,07,41,8.60
2010,08,20,07,42,8.70
2010,08,20,07,43,8.70
2010,08,20,07,44,8.70
2010,08,20,07,45,8.70
2010,08,20,07,46,8.70
2010,08,20,07,47,8.80
2010,08,20,07,48,8.80
2010,08,20,07,49,8.80
2010,08,20,07,50,8.90
2010,08,20,07,51,8.90
2010,08,20,07,52,8.90
2010,08,20,07,53,8.90
2010,08,20,07,54,9.00
2010,08,20,07,55,9.00
2010,08,20,07,56,9.10
2010,08,20,07,57,9.10
2010,08,20,07,58,9.20
2010,08,20,07,59,9.20
2010,08,20,08,00,9.20
2010,08,20,08,01,9.30
2010,08,20,08,02,9.40
2010,08,20,08,03,9.40
2010,08,20,08,04,9.50
2010,08,20,08,05,9.50
2010,08,20,08,06,9.60
2010,08,20,08,07,9.60
2010,08,20,08,08,9.60
2010,08,20,08,09,9.70
2010,08,20,08,10,9.70
2010,08,20,08,11,9.70
2010,08,20,08,12,9.70
2010,08,20,08,13,9.70
2010,08,20,08,14,9.70
2010,08,20,08,15,9.80
2010,08,20,08,16,9.80
2010,08,20,08,17,9.90
2010,08,20,08,18,9.90
2010,08,20,08,19,9.90
2010,08,20,08,20,10.00
2010,08,20,08,21,10.10
2010,08,20,08,22,10.10
2010,08,20,08,23,10.20
2010,08,20,08,24,10.20
2010,08,20,08,25,10.30
2010,08,20,08,26,10.40
2010,08,20,08,27,10.40
2010,08,20,08,28,10.50
2010,08,20,08,29,10.60
2010,08,20,08,30,10.70
2010,08,20,08,31,10.80
2010,08,20,08,32,10.90
2010,08,20,08,33,11.00
2010,08,20,08,34,11.10
2010,08,20,08,35,11.30
2010,08,20,08,36,11.30
2010,08,20,08,37,11.40
2010,08,20,08,38,11.60
2010,08,20,08,39,11.60
2010,08,20,08,40,11.70
2010,08,20,08,41,11.80
2010,08,20,08,42,11.80
2010,08,20,08,43,11.90
2010,08,20,08,44,11.90
2010,08,20,08,45,12.00
2010,08,20,08,46,12.10
2010,08,20,08,47,12.10
2010,08,20,08,48,12.20
2010,08,20,08,49,12.30
2010,08,20,08,50,12.40
2010,08,20,08,51,12.50
2010,08,20,08,52,12.50
2010,08,20,08,53,12.60
2010,08,20,08,54,12.60
2010,08,20,08,55,12.70
2010,08,20,08,56,12.80
2010,08,20,08,57,12.80
2010,08,20,08,58,12.80
2010,08,20,08,59,12.90
2010,08,20,09,00,12.90
2010,08,20,09,01,13.00
2010,08,20,09,02,13.10
2010,08,20,09,03,13.10
2010,08,20,09,04,13.20
2010,08,20,09,05,13.20
2010,08,20,09,06,13.30
2010,08,20,09,07,13.30
2010,08,20,09,08,13.30
2010,08,20,09,09,13.30
2010,08,20,09,10,13.40
2010,08,20,09,11,13.40
2010,08,20,09,12,13.40
2010,08,20,09,13,13.40
2010,08,20,09,14,13.40
2010,08,20,09,15,13.40
2010,08,20,09,16,13.40
2010,08,20,09,17,13.40
2010,08,20,09,18,13.40
2010,08,20,09,19,13.40
2010,08,20,09,20,13.40
2010,08,20,09,21,13.30
2010,08,20,09,22,13.40
2010,08,20,09,23,13.40
2010,08,20,09,24,13.40
2010,08,20,09,25,13.40
2010,08,20,09,26,13.40
2010,08,20,09,27,13.50
2010,08,20,09,28,13.50
2010,08,20,09,29,13.60
2010,08,20,09,30,13.60
2010,08,20,09,31,13.60
2010,08,20,09,32,13.60
2010,08,20,09,33,13.70
2010,08,20,09,34,13.70
2010,08,20,09,35,13.70
2010,08,20,09,36,13.70
2010,08,20,09,37,13.80
2010,08,20,09,38,13.90
2010,08,20,09,39,13.90
2010,08,20,09,40,14.00
2010,08,20,09,41,14.10
2010,08,20,09,42,14.20
2010,08,20,09,43,14.30
2010,08,20,09,44,14.40
2010,08,20,09,45,14.60
2010,08,20,09,46,14.60
2010,08,20,09,47,14.70
2010,08,20,09,48,14.80
2010,08,20,09,49,14.80
2010,08,20,09,50,14.80
2010,08,20,09,51,14.80
2010,08,20,09,52,14.80
2010,08,20,09,53,14.90
2010,08,20,09,54,15.00
2010,08,20,09,55,15.10
2010,08,20,09,56,15.10
2010,08,20,09,57,15.20
2010,08,20,09,58,15.30
2010,08,20,09,59,15.30
2010,08,20,10,00,15.40
2010,08,20,10,01,15.50
2010,08,20,10,02,15.50
2010,08,20,10,03,15.50
2010,08,20,10,04,15.40
2010,08,20,10,05,15.30
2010,08,20,10,06,15.30
2010,08,20,10,07,15.30
2010,08,20,10,08,15.40
2010,08,20,10,09,15.40
2010,08,20,10,10,15.50
2010,08,20,10,11,15.50
2010,08,20,10,12,15.60
2010,08,20,10,13,15.60
2010,08,20,10,14,15.50
2010,08,20,10,15,15.50
2010,08,20,10,16,15.50
2010,08,20,10,17,15.40
2010,08,20,10,18,15.50
2010,08,20,10,19,15.50
2010,08,20,10,20,15.50
2010,08,20,10,21,15.60
2010,08,20,10,22,15.60
2010,08,20,10,23,15.60
2010,08,20,10,24,15.60
2010,08,20,10,25,15.60
2010,08,20,10,26,15.60
2010,08,20,10,27,15.70
2010,08,20,10,28,15.70
2010,08,20,10,29,15.80
2010,08,20,10,30,15.80
2010,08,20,10,31,15.90
2010,08,20,10,32,16.00
2010,08,20,10,33,16.10
2010,08,20,10,34,16.10
2010,08,20,10,35,16.10
2010,08,20,10,36,16.10
2010,08,20,10,37,16.10
2010,08,20,10,38,16.10
2010,08,20,10,39,16.10
2010,08,20,10,40,16.00
2010,08,20,10,41,15.90
2010,08,20,10,42,15.90
2010,08,20,10,43,15.90
2010,08,20,10,44,15.80
2010,08,20,10,45,15.80
2010,08,20,10,46,15.90
2010,08,20,10,47,15.90
2010,08,20,10,48,15.80
2010,08,20,10,49,15.80
2010,08,20,10,50,15.80
2010,08,20,10,51,15.80
2010,08,20,10,52,15.80
2010,08,20,10,53,15.80
2010,08,20,10,54,15.80
2010,08,20,10,55,15.80
2010,08,20,10,56,15.70
2010,08,20,10,57,15.70
2010,08,20,10,58,15.60
2010,08,20,10,59,15.60
2010,08,20,11,00,15.50
2010,08,20,11,01,15.50
2010,08,20,11,02,15.40
2010,08,20,11,03,15.40
2010,08,20,11,04,15.30
2010,08,20,11,05,15.30
2010,08,20,11,06,15.30
2010,08,20,11,07,15.30
2010,08,20,11,08,15.30
2010,08,20,11,09,15.30
2010,08,20,11,10,15.30
2010,08,20,11,11,15.30
2010,08,20,11,12,15.30
2010,08,20,11,13,15.30
2010,08,20,11,14,15.30
2010,08,20,11,15,15.30
2010,08,20,11,16,15.30
2010,08,20,11,17,15.40
2010,08,20,11,18,15.40
2010,08,20,11,19,15.40
2010,08,20,11,20,15.40
2010,08,20,11,21,15.40
2010,08,20,11,22,15.40
2010,08,20,11,23,15.50
2010,08,20,11,24,15.50
2010,08,20,11,25,15.50
2010,08,20,11,26,15.50
2010,08,20,11,27,15.60
2010,08,20,11,28,15.60
2010,08,20,11,29,15.60
2010,08,20,11,30,15.60
2010,08,20,11,31,15.60
2010,08,20,11,32,15.60
2010,08,20,11,33,15.60
2010,08,20,11,34,15.60
2010,08,20,11,35,15.60
2010,08,20,11,36,15.60
2010,08,20,11,37,15.60
2010,08,20,11,38,15.60
2010,08,20,11,39,15.60
2010,08,20,11,40,15.60
2010,08,20,11,41,15.60
2010,08,20,11,42,15.60
2010,08,20,11,43,15.60
2010,08,20,11,44,15.60
2010,08,20,11,45,15.60
2010,08,20,11,46,15.60
2010,08,20,11,47,15.70
2010,08,20,11,48,15.70
2010,08,20,11,49,15.80
2010,08,20,11,50,16.00
2010,08,20,11,51,16.20
2010,08,20,11,52,16.30
2010,08,20,11,53,16.40
2010,08,20,11,54,16.60
2010,08,20,11,55,16.70
2010,08,20,11,56,16.80
2010,08,20,11,57,17.00
2010,08,20,11,58,17.10
2010,08,20,11,59,17.20
2010,08,20,12,00,17.20
2010,08,20,12,01,17.20
2010,08,20,12,02,17.10
2010,08,20,12,03,17.00
2010,08,20,12,04,17.00
2010,08,20,12,05,17.10
2010,08,20,12,06,17.10
2010,08,20,12,07,17.00
2010,08,20,12,08,17.00
2010,08,20,12,09,17.00
2010,08,20,12,10,16.90
2010,08,20,12,11,16.90
2010,08,20,12,12,16.90
2010,08,20,12,13,16.80
2010,08,20,12,14,16.70
2010,08,20,12,15,16.60
2010,08,20,12,16,16.60
2010,08,20,12,17,16.60
2010,08,20,12,18,16.60
2010,08,20,12,19,16.60
2010,08,20,12,20,16.50
2010,08,20,12,21,16.40
2010,08,20,12,22,16.40
2010,08,20,12,23,16.50
2010,08,20,12,24,16.50
2010,08,20,12,25,16.60
2010,08,20,12,26,16.50
2010,08,20,12,27,16.40
2010,08,20,12,28,16.50
2010,08,20,12,29,16.60
2010,08,20,12,30,16.70
2010,08,20,12,31,16.70
2010,08,20,12,32,16.80
2010,08,20,12,33,16.80
2010,08,20,12,34,16.80
2010,08,20,12,35,16.80
2010,08,20,12,36,16.90
2010,08,20,12,37,16.90
2010,08,20,12,38,17.00
2010,08,20,12,39,17.20
2010,08,20,12,40,17.30
2010,08,20,12,41,17.40
2010,08,20,12,42,17.70
2010,08,20,12,43,17.80
2010,08,20,12,44,17.80
2010,08,20,12,45,17.70
2010,08,20,12,46,17.80
2010,08,20,12,47,17.70
2010,08,20,12,48,17.70
2010,08,20,12,49,17.80
2010,08,20,12,50,17.80
2010,08,20,12,51,17.70
2010,08,20,12,52,17.70
2010,08,20,12,53,17.60
2010,08,20,12,54,17.60
2010,08,20,12,55,17.60
2010,08,20,12,56,17.50
2010,08,20,12,57,17.50
2010,08,20,12,58,17.40
2010,08,20,12,59,17.30
2010,08,20,13,00,17.30
2010,08,20,13,01,17.30
2010,08,20,13,02,17.30
2010,08,20,13,03,17.30
2010,08,20,13,04,17.30
2010,08,20,13,05,17.30
2010,08,20,13,06,17.20
2010,08,20,13,07,17.20
2010,08,20,13,08,17.20
2010,08,20,13,09,17.10
2010,08,20,13,10,17.10
2010,08,20,13,11,17.10
2010,08,20,13,12,17.10
2010,08,20,13,13,17.00
2010,08,20,13,14,16.90
2010,08,20,13,15,16.90
2010,08,20,13,16,16.80
2010,08,20,13,17,16.70
2010,08,20,13,18,16.70
2010,08,20,13,19,16.70
2010,08,20,13,20,16.60
2010,08,20,13,21,16.60
2010,08,20,13,22,16.50
2010,08,20,13,23,16.40
2010,08,20,13,24,16.40
2010,08,20,13,25,16.40
2010,08,20,13,26,16.40
2010,08,20,13,27,16.50
2010,08,20,13,28,16.60
2010,08,20,13,29,16.70
2010,08,20,13,30,16.80
2010,08,20,13,31,16.90
2010,08,20,13,32,17.00
2010,08,20,13,33,17.20
2010,08,20,13,34,17.40
2010,08,20,13,35,17.50
2010,08,20,13,36,17.70
2010,08,20,13,37,17.90
2010,08,20,13,38,18.00
2010,08,20,13,39,18.20
2010,08,20,13,40,18.30
2010,08,20,13,41,18.40
2010,08,20,13,42,18.40
2010,08,20,13,43,18.50
2010,08,20,13,44,18.60
2010,08,20,13,45,18.60
2010,08,20,13,46,18.60
2010,08,20,13,47,18.50
2010,08,20,13,48,18.30
2010,08,20,13,49,18.20
2010,08,20,13,50,18.20
2010,08,20,13,51,18.10
2010,08,20,13,52,18.10
2010,08,20,13,53,18.10
2010,08,20,13,54,18.20
2010,08,20,13,55,18.20
2010,08,20,13,56,18.20
2010,08,20,13,57,18.20
2010,08,20,13,58,18.20
2010,08,20,13,59,18.30
2010,08,20,14,00,18.40
2010,08,20,14,01,18.60
2010,08,20,14,02,18.70
2010,08,20,14,03,18.80
2010,08,20,14,04,18.90
2010,08,20,14,05,19.00
2010,08,20,14,06,19.10
2010,08,20,14,07,19.10
2010,08,20,14,08,19.10
2010,08,20,14,09,19.10
2010,08,20,14,10,19.10
2010,08,20,14,11,19.10
2010,08,20,14,12,19.10
2010,08,20,14,13,19.20
2010,08,20,14,14,19.30
2010,08,20,14,15,19.40
2010,08,20,14,16,19.50
2010,08,20,14,17,19.50
2010,08,20,14,18,19.60
2010,08,20,14,19,19.60
2010,08,20,14,20,19.50
2010,08,20,14,21,19.30
2010,08,20,14,22,19.20
2010,08,20,14,23,19.10
2010,08,20,14,24,19.00
2010,08,20,14,25,18.90
2010,08,20,14,26,18.80
2010,08,20,14,27,18.80
2010,08,20,14,28,18.80
2010,08,20,14,29,18.80
2010,08,20,14,30,18.90
2010,08,20,14,31,19.00
2010,08,20,14,32,19.10
2010,08,20,14,33,19.10
2010,08,20,14,34,19.10
2010,08,20,14,35,19.10
2010,08,20,14,36,19.10
2010,08,20,14,37,19.10
2010,08,20,14,38,19.20
2010,08,20,14,39,19.10
2010,08,20,14,40,19.20
2010,08,20,14,41,19.20
2010,08,20,14,42,19.10
2010,08,20,14,43,19.10
2010,08,20,14,44,19.10
2010,08,20,14,45,19.10
2010,08,20,14,46,19.10
2010,08,20,14,47,19.10
2010,08,20,14,48,19.10
2010,08,20,14,49,19.10
2010,08,20,14,50,19.20
2010,08,20,14,51,19.20
2010,08,20,14,52,19.20
2010,08,20,14,53,19.10
2010,08,20,14,54,19.10
2010,08,20,14,55,19.00
2010,08,20,14,56,18.90
2010,08,20,14,57,18.90
2010,08,20,14,58,18.90
2010,08,20,14,59,18.90
2010,08,20,15,00,18.90
2010,08,20,15,01,18.90
2010,08,20,15,02,19.00
2010,08,20,15,03,19.10
2010,08,20,15,04,19.20
2010,08,20,15,05,19.20
2010,08,20,15,06,19.20
2010,08,20,15,07,19.20
2010,08,20,15,08,19.20
2010,08,20,15,09,19.20
2010,08,20,15,10,19.10
2010,08,20,15,11,18.90
2010,08,20,15,12,18.90
2010,08,20,15,13,18.70
2010,08,20,15,14,18.60
2010,08,20,15,15,18.60
2010,08,20,15,16,18.60
2010,08,20,15,17,18.60
2010,08,20,15,18,18.70
2010,08,20,15,19,18.70
2010,08,20,15,20,18.70
2010,08,20,15,21,18.80
2010,08,20,15,22,18.90
2010,08,20,15,23,18.90
2010,08,20,15,24,19.00
2010,08,20,15,25,19.10
2010,08,20,15,26,19.10
2010,08,20,15,27,19.20
2010,08,20,15,28,19.20
2010,08,20,15,29,19.10
2010,08,20,15,30,19.10
2010,08,20,15,31,19.10
2010,08,20,15,32,19.20
2010,08,20,15,33,19.20
2010,08,20,15,34,19.20
2010,08,20,15,35,19.20
2010,08,20,15,36,19.20
2010,08,20,15,37,19.30
2010,08,20,15,38,19.30
2010,08,20,15,39,19.20
2010,08,20,15,40,19.10
2010,08,20,15,41,19.10
2010,08,20,15,42,19.10
2010,08,20,15,43,19.10
2010,08,20,15,44,18.90
2010,08,20,15,45,18.90
2010,08,20,15,46,18.90
2010,08,20,15,47,18.90
2010,08,20,15,48,18.90
2010,08,20,15,49,18.90
2010,08,20,15,50,18.90
2010,08,20,15,51,18.80
2010,08,20,15,52,18.70
2010,08,20,15,53,18.80
2010,08,20,15,54,18.70
2010,08,20,15,55,18.60
2010,08,20,15,56,18.50
2010,08,20,15,57,18.40
2010,08,20,15,58,18.40
2010,08,20,15,59,18.40
2010,08,20,16,00,18.40
2010,08,20,16,01,18.50
2010,08,20,16,02,18.60
2010,08,20,16,03,18.60
2010,08,20,16,04,18.70
2010,08,20,16,05,18.80
2010,08,20,16,06,18.80
2010,08,20,16,07,18.90
2010,08,20,16,08,18.80
2010,08,20,16,09,18.80
2010,08,20,16,10,18.80
2010,08,20,16,11,18.80
2010,08,20,16,12,18.70
2010,08,20,16,13,18.60
2010,08,20,16,14,18.60
2010,08,20,16,15,18.50
2010,08,20,16,16,18.50
2010,08,20,16,17,18.40
2010,08,20,16,18,18.30
2010,08,20,16,19,18.30
2010,08,20,16,20,18.20
2010,08,20,16,21,18.20
2010,08,20,16,22,18.20
2010,08,20,16,23,18.20
2010,08,20,16,24,18.20
2010,08,20,16,25,18.10
2010,08,20,16,26,18.10
2010,08,20,16,27,18.10
2010,08,20,16,28,18.00
2010,08,20,16,29,17.90
2010,08,20,16,30,17.90
2010,08,20,16,31,17.90
2010,08,20,16,32,17.90
2010,08,20,16,33,17.90
2010,08,20,16,34,17.90
2010,08,20,16,35,17.80
2010,08,20,16,36,17.80
2010,08,20,16,37,17.80
2010,08,20,16,38,17.80
2010,08,20,16,39,17.80
2010,08,20,16,40,17.80
2010,08,20,16,41,17.80
2010,08,20,16,42,17.80
2010,08,20,16,43,17.80
2010,08,20,16,44,17.80
2010,08,20,16,45,17.80
2010,08,20,16,46,17.80
2010,08,20,16,47,17.80
2010,08,20,16,48,17.80
2010,08,20,16,49,17.80
2010,08,20,16,50,17.80
2010,08,20,16,51,17.80
2010,08,20,16,52,17.80
2010,08,20,16,53,17.80
2010,08,20,16,54,17.90
2010,08,20,16,55,17.90
2010,08,20,16,56,17.80
2010,08,20,16,57,17.80
2010,08,20,16,58,17.80
2010,08,20,16,59,17.80
2010,08,20,17,00,17.80
2010,08,20,17,01,17.70
2010,08,20,17,02,17.70
2010,08,20,17,03,17.70
2010,08,20,17,04,17.80
2010,08,20,17,05,17.80
2010,08,20,17,06,17.80
2010,08,20,17,07,17.80
2010,08,20,17,08,17.80
2010,08,20,17,09,17.80
2010,08,20,17,10,17.80
2010,08,20,17,11,17.80
2010,08,20,17,12,17.80
2010,08,20,17,13,17.80
2010,08,20,17,14,17.80
2010,08,20,17,15,17.80
2010,08,20,17,16,17.80
2010,08,20,17,17,17.80
2010,08,20,17,18,17.70
2010,08,20,17,19,17.70
2010,08,20,17,20,17.70
2010,08,20,17,21,17.70
2010,08,20,17,22,17.70
2010,08,20,17,23,17.70
2010,08,20,17,24,17.60
2010,08,20,17,25,17.60
2010,08,20,17,26,17.60
2010,08,20,17,27,17.60
2010,08,20,17,28,17.60
2010,08,20,17,29,17.60
2010,08,20,17,30,17.60
2010,08,20,17,31,17.60
2010,08,20,17,32,17.60
2010,08,20,17,33,17.60
2010,08,20,17,34,17.60
2010,08,20,17,35,17.60
2010,08,20,17,36,17.50
2010,08,20,17,37,17.50
2010,08,20,17,38,17.50
2010,08,20,17,39,17.40
2010,08,20,17,40,17.40
2010,08,20,17,41,17.40